| time (UTC) | temp C | wind direction | speed KPH | gust KPH | rain 1hr cm | rain 24hr cm | rain mn cm | humidity % | barometer mb |
| 20260506134504 | 17 | 82 | 11.3 | 29.0 | 0.00 | 2.72 | 2.72 | 77 | 1009.9 |
| 20260506130006 | 18 | 169 | 11.3 | 30.6 | 0.00 | 2.72 | 2.72 | 73 | 1010.0 |
| 20260506124507 | 18 | 79 | 8.0 | 22.5 | 0.00 | 2.72 | 2.72 | 76 | 1009.8 |
| 20260506123005 | 18 | 72 | 12.9 | 20.9 | 0.00 | 2.72 | 2.72 | 76 | 1009.6 |
| 20260506120014 | 18 | 96 | 11.3 | 24.1 | 0.00 | 2.72 | 2.72 | 79 | 1009.4 |
| 20260506114506 | 17 | 82 | 11.3 | 29.0 | 0.00 | 2.72 | 2.72 | 82 | 1009.2 |
| 20260506113010 | 17 | 74 | 12.9 | 38.6 | 0.00 | 2.72 | 2.72 | 82 | 1009.3 |
| 20260506111505 | 17 | 89 | 9.7 | 27.4 | 0.00 | 2.72 | 2.72 | 82 | 1009.3 |
| 20260506104508 | 17 | 97 | 9.7 | 24.1 | 0.00 | 2.72 | 2.72 | 79 | 1009.3 |
| 20260506103009 | 17 | 95 | 14.5 | 30.6 | 0.00 | 2.72 | 2.72 | 79 | 1009.4 |
| 20260506101521 | 17 | 80 | 11.3 | 29.0 | 0.00 | 2.72 | 2.72 | 80 | 1009.2 |
| 20260506100010 | 17 | 71 | 12.9 | 27.4 | 0.00 | 2.74 | 2.72 | 79 | 1009.1 |
| 20260506094522 | 17 | 85 | 9.7 | 25.7 | 0.00 | 2.87 | 2.72 | 79 | 1009.1 |
| 20260506093014 | 17 | 91 | 12.9 | 27.4 | 0.00 | 2.92 | 2.72 | 79 | 1009.0 |
| 20260506091514 | 17 | 64 | 14.5 | 22.5 | 0.00 | 2.95 | 2.72 | 80 | 1008.9 |
| 20260506090014 | 17 | 140 | 9.7 | 17.7 | 0.00 | 2.97 | 2.72 | 84 | 1008.8 |
| 20260506081506 | 16 | 131 | 4.8 | 14.5 | 0.00 | 2.97 | 2.72 | 87 | 1008.7 |
| 20260506073015 | 14 | 260 | 0.0 | 1.6 | 0.36 | 2.97 | 2.72 | 91 | 1008.5 |
| 20260506071509 | 13 | 306 | 0.0 | 8.0 | 0.38 | 2.97 | 2.72 | 90 | 1008.5 |
| 20260506061508 | 12 | 289 | 1.6 | 3.2 | 0.00 | 2.62 | 2.34 | 92 | 1007.9 |
| 20260506044545 | 12 | 297 | 0.0 | 3.2 | 0.03 | 3.71 | 2.34 | 92 | 1008.9 |
| 20260506043014 | 12 | 311 | 0.0 | 3.2 | 0.03 | 3.91 | 2.34 | 92 | 1009.0 |
| 20260506041512 | 12 | 293 | 0.0 | 0.0 | 0.00 | 4.24 | 2.31 | 92 | 1009.6 |
| 20260506040007 | 12 | 293 | 1.6 | 3.2 | 0.00 | 4.83 | 2.31 | 92 | 1009.6 |
| 20260506034530 | 12 | 274 | 0.0 | 1.6 | 0.10 | 5.08 | 2.31 | 92 | 1009.6 |
| 20260506033016 | 12 | 278 | 0.0 | 1.6 | 0.13 | 5.26 | 2.31 | 92 | 1009.5 |
| 20260506031517 | 12 | 282 | 3.2 | 9.7 | 0.15 | 5.41 | 2.31 | 92 | 1009.6 |
| 20260506030018 | 12 | 352 | 0.0 | 4.8 | 0.41 | 5.54 | 2.31 | 92 | 1010.0 |
| 20260506024511 | 13 | 89 | 0.0 | 3.2 | 0.56 | 5.51 | 2.21 | 92 | 1010.2 |
| 20260506023016 | 13 | 84 | 0.0 | 1.6 | 0.81 | 5.56 | 2.18 | 92 | 1010.4 |
| 20260506021518 | 13 | 84 | 0.0 | 0.0 | 1.07 | 5.59 | 2.16 | 92 | 1010.5 |
| 20260506020020 | 13 | 84 | 0.0 | 4.8 | 1.37 | 5.41 | 1.91 | 91 | 1011.1 |
| 20260506013009 | 13 | 264 | 0.0 | 4.8 | 1.37 | 5.05 | 1.37 | 92 | 1011.2 |
| 20260506011517 | 13 | 105 | 0.0 | 3.2 | 1.09 | 4.85 | 1.09 | 91 | 1010.9 |
| 20260506010022 | 13 | 82 | 0.0 | 4.8 | 0.53 | 4.39 | 0.53 | 91 | 1011.0 |
| 20260506004533 | 13 | 263 | 0.0 | 0.0 | 0.00 | 3.91 | 0.00 | 91 | 1011.1 |
| 20260506001513 | 13 | 271 | 0.0 | 1.6 | 0.00 | 3.91 | 0.00 | 91 | 1011.2 |
| 20260506000022 | 13 | 279 | 0.0 | 1.6 | 0.00 | 3.91 | 0.00 | 91 | 1011.3 |
| 20260505234533 | 13 | 302 | 0.0 | 3.2 | 0.00 | 3.91 | 0.00 | 91 | 1011.7 |
| 20260505233025 | 13 | 262 | 0.0 | 0.0 | 0.00 | 3.91 | 0.00 | 91 | 1011.9 |
| 20260505231526 | 13 | 262 | 0.0 | 1.6 | 0.00 | 3.91 | 0.00 | 91 | 1012.2 |
| 20260505230030 | 13 | 262 | 0.0 | 1.6 | 0.00 | 3.91 | 0.00 | 91 | 1012.1 |
| 20260505224520 | 13 | 269 | 1.6 | 3.2 | 0.00 | 3.91 | 0.00 | 91 | 1012.2 |
| 20260505223024 | 13 | 299 | 0.0 | 3.2 | 0.00 | 3.91 | 0.00 | 91 | 1012.4 |
| 20260505221512 | 13 | 286 | 0.0 | 1.6 | 0.00 | 3.91 | 0.00 | 91 | 1012.5 |
| 20260505220023 | 13 | 255 | 0.0 | 1.6 | 0.00 | 3.91 | 0.00 | 90 | 1012.5 |
| 20260505214523 | 13 | 255 | 0.0 | 1.6 | 0.00 | 3.91 | 3.91 | 90 | 1012.7 |
| 20260505213018 | 13 | 274 | 0.0 | 0.0 | 0.00 | 3.91 | 3.91 | 90 | 1012.9 |
| 20260505211504 | 13 | 274 | 0.0 | 1.6 | 0.00 | 3.91 | 3.91 | 90 | 1012.8 |
| 20260505210012 | 14 | 253 | 1.6 | 3.2 | 0.00 | 3.91 | 3.91 | 89 | 1013.0 |
| 20260505204515 | 14 | 293 | 0.0 | 3.2 | 0.00 | 3.91 | 3.91 | 89 | 1013.2 |
| 20260505203018 | 14 | 298 | 3.2 | 6.4 | 0.00 | 3.91 | 3.91 | 89 | 1013.2 |
| 20260505201524 | 14 | 277 | 0.0 | 1.6 | 0.00 | 3.91 | 3.91 | 89 | 1013.1 |
| 20260505200008 | 14 | 236 | 0.0 | 0.0 | 0.00 | 3.91 | 3.91 | 88 | 1013.2 |
| 20260505194527 | 15 | 284 | 0.0 | 1.6 | 0.00 | 3.91 | 3.91 | 88 | 1013.2 |
| 20260505193032 | 15 | 273 | 0.0 | 0.0 | 0.00 | 3.91 | 3.91 | 88 | 1013.1 |
| 20260505191518 | 15 | 274 | 0.0 | 3.2 | 0.00 | 3.91 | 3.91 | 87 | 1013.1 |
| 20260505190025 | 15 | 86 | 0.0 | 0.0 | 0.00 | 3.91 | 3.91 | 85 | 1012.9 |
| 20260505184527 | 15 | 86 | 0.0 | 4.8 | 0.00 | 3.91 | 3.91 | 85 | 1012.9 |
| 20260505180032 | 16 | 257 | 0.0 | 9.7 | 0.00 | 3.91 | 3.91 | 83 | 1012.9 |
| 20260505174532 | 16 | 105 | 1.6 | 6.4 | 0.00 | 3.91 | 3.91 | 82 | 1012.9 |
| 20260505173025 | 16 | 76 | 6.4 | 11.3 | 0.00 | 3.91 | 3.91 | 82 | 1012.8 |
| 20260505171514 | 16 | 101 | 4.8 | 11.3 | 0.00 | 3.91 | 3.91 | 81 | 1012.7 |
| 20260505170024 | 16 | 84 | 6.4 | 14.5 | 0.00 | 3.91 | 3.91 | 81 | 1013.0 |
| 20260505164520 | 16 | 96 | 6.4 | 8.0 | 0.00 | 3.91 | 3.91 | 80 | 1012.9 |
| 20260505163025 | 16 | 87 | 1.6 | 9.7 | 0.00 | 3.91 | 3.91 | 81 | 1012.7 |
| 20260505161526 | 16 | 104 | 4.8 | 9.7 | 0.00 | 3.91 | 3.91 | 81 | 1012.8 |
| 20260505153024 | 17 | 69 | 4.8 | 11.3 | 0.00 | 3.91 | 3.91 | 81 | 1013.0 |
| 20260505151529 | 17 | 88 | 3.2 | 8.0 | 0.00 | 3.91 | 3.91 | 80 | 1013.0 |